Date String (YYYY-MM-DD hh:mm:ss) UTC,Instrument flags,Ambient pressure (hPa),Sample flow (lpm),Bypass flow (lpm),Sample temperature (°C),Ambient temperature (°C),ASC tube jacket temperature (°C),LED temperature (°C),Box temperature (°C),Sample RH (%),Span deviation,Mass concentration (μg/m³),Mass concentration (μg/m³),Mass concentration (μg/m³)
DateTimeUTC,F1_M11,P_M11,Q1_M11,Q2_M11,T1_M11,T2_M11,T3_M11,T4_M11,T5_M11,U1_M11,ZSPAN_M11,X0_M11,X2_M11,X1_M11
2022-09-26 03:00:00,,0833.6,4.99,0.00,30.3,28.1,00.0,39.1,32.0,14.5,0000.0,0010.02,0005.59,0005.11
2022-09-26 03:01:00,,0833.6,5.01,0.00,30.2,28.3,00.0,39.1,32.0,14.6,0000.0,0010.13,0005.55,0005.10
2022-09-26 03:02:00,,0833.6,4.99,0.00,30.2,28.4,00.0,39.1,32.0,14.5,0000.0,0010.17,0005.54,0005.08
2022-09-26 03:03:00,,0833.6,5.00,0.00,30.2,28.5,00.0,39.0,32.0,14.6,0000.0,0010.20,0005.55,0005.06
2022-09-26 03:04:00,,0833.6,4.99,0.00,30.2,28.6,00.0,39.0,32.1,14.4,0000.0,0010.35,0005.57,0005.05
2022-09-26 03:05:00,,0833.7,5.01,0.00,30.2,28.7,00.0,39.0,32.1,14.5,0000.0,0010.24,0005.58,0005.05
2022-09-26 03:06:00,,0833.7,5.00,0.00,30.3,28.7,00.0,39.0,32.1,14.5,0000.0,0010.40,0005.60,0005.05
2022-09-26 03:07:00,,0833.7,5.01,0.00,30.3,28.8,00.0,39.0,32.1,14.4,0000.0,0010.63,0005.59,0005.04
2022-09-26 03:08:00,,0833.7,4.99,0.00,30.3,28.8,00.0,39.0,32.1,14.4,0000.0,0010.45,0005.59,0005.03
2022-09-26 03:09:00,,0833.7,4.99,0.00,30.3,28.8,00.0,39.0,32.1,14.4,0000.0,0010.12,0005.59,0005.04
2022-09-26 03:10:00,,0833.7,5.02,0.00,30.3,28.9,00.0,39.0,32.2,14.3,0000.0,0010.03,0005.58,0005.05
2022-09-26 03:11:00,,0833.7,5.00,0.00,30.3,28.9,00.0,39.0,32.1,14.4,0000.0,0010.31,0005.59,0005.05
2022-09-26 03:12:00,,0833.7,4.99,0.00,30.3,29.0,00.0,39.0,32.2,14.6,0000.0,0010.57,0005.63,0005.05
2022-09-26 03:13:00,,0833.7,5.01,0.00,30.3,29.0,00.0,39.1,32.2,14.4,0000.0,0010.65,0005.65,0005.05
2022-09-26 03:14:00,,0833.7,5.00,0.00,30.4,29.0,00.0,39.1,32.2,14.4,0000.0,0011.30,0005.70,0005.06
2022-09-26 03:15:00,,0833.7,5.00,0.00,30.4,29.0,00.0,39.1,32.2,14.3,0000.0,0011.27,0005.66,0005.07
2022-09-26 03:16:00,,0833.7,5.02,0.00,30.4,29.1,00.0,39.1,32.3,14.3,0000.0,0011.27,0005.63,0005.06
2022-09-26 03:17:00,,0833.7,5.00,0.00,30.4,29.1,00.0,39.1,32.3,14.2,0000.0,0012.20,0005.64,0005.06
2022-09-26 03:18:00,,0833.7,5.02,0.00,30.4,29.1,00.0,39.1,32.3,14.2,0000.0,0012.34,0005.67,0005.07
2022-09-26 03:19:00,,0833.7,5.00,0.00,30.4,29.1,00.0,39.1,32.3,14.2,0000.0,0012.80,0005.69,0005.08
2022-09-26 03:20:00,,0833.7,5.00,0.00,30.4,29.1,00.0,39.1,32.3,14.2,0000.0,0012.77,0005.70,0005.08
2022-09-26 03:21:00,,0833.7,5.00,0.00,30.5,29.2,00.0,39.2,32.3,14.2,0000.0,0012.93,0005.73,0005.07
2022-09-26 03:22:00,,0833.7,5.01,0.00,30.5,29.2,00.0,39.2,32.3,14.3,0000.0,0012.95,0005.74,0005.08
2022-09-26 03:23:00,,0833.7,4.99,0.00,30.5,29.2,00.0,39.2,32.4,14.3,0000.0,0012.67,0005.71,0005.08
2022-09-26 03:24:00,,0833.7,5.01,0.00,30.5,29.2,00.0,39.2,32.4,14.2,0000.0,0012.33,0005.70,0005.09
2022-09-26 03:25:00,,0833.7,5.00,0.00,30.5,29.2,00.0,39.2,32.4,14.2,0000.0,0011.80,0005.66,0005.08
2022-09-26 03:26:00,,0833.8,4.99,0.00,30.5,29.2,00.0,39.2,32.4,14.2,0000.0,0011.53,0005.65,0005.07
2022-09-26 03:27:00,,0833.8,5.01,0.00,30.5,29.2,00.0,39.2,32.4,14.2,0000.0,0011.32,0005.62,0005.07
2022-09-26 03:28:00,,0833.8,5.00,0.00,30.6,29.2,00.0,39.2,32.4,14.1,0000.0,0010.44,0005.58,0005.07
2022-09-26 03:29:00,,0833.8,5.01,0.00,30.6,29.2,00.0,39.3,32.4,14.1,0000.0,0009.95,0005.53,0005.05
2022-09-26 03:30:00,,0833.8,5.00,0.00,30.6,29.2,00.0,39.3,32.4,14.0,0000.0,0009.44,0005.54,0005.06
2022-09-26 03:31:00,,0833.8,4.99,0.00,30.6,29.2,00.0,39.3,32.4,14.0,0000.0,0009.47,0005.55,0005.05
2022-09-26 03:32:00,,0833.9,5.00,0.00,30.6,29.2,00.0,39.3,32.4,14.0,0000.0,0009.68,0005.54,0005.05
2022-09-26 03:33:00,,0833.8,5.00,0.00,30.6,29.2,00.0,39.3,32.5,14.0,0000.0,0009.81,0005.53,0005.04
2022-09-26 03:34:00,,0833.9,5.00,0.00,30.6,29.3,00.0,39.3,32.5,14.0,0000.0,0010.30,0005.55,0005.04
2022-09-26 03:35:00,,0833.9,5.00,0.00,30.6,29.3,00.0,39.3,32.5,14.0,0000.0,0010.76,0005.57,0005.04
2022-09-26 03:36:00,,0833.9,4.99,0.00,30.6,29.3,00.0,39.3,32.5,14.0,0000.0,0010.81,0005.57,0005.05
2022-09-26 03:37:00,,0833.9,5.01,0.00,30.7,29.3,00.0,39.4,32.5,14.0,0000.0,0010.94,0005.59,0005.05
2022-09-26 03:38:00,,0833.9,4.99,0.00,30.7,29.3,00.0,39.4,32.5,14.0,0000.0,0011.51,0005.65,0005.05
2022-09-26 03:39:00,,0833.9,5.00,0.00,30.7,29.3,00.0,39.4,32.5,14.0,0000.0,0012.04,0005.70,0005.04
2022-09-26 03:40:00,,0833.9,5.01,0.00,30.7,29.3,00.0,39.4,32.5,14.0,0000.0,0012.40,0005.76,0005.05
2022-09-26 03:41:00,,0833.9,4.99,0.00,30.7,29.3,00.0,39.4,32.5,14.0,0000.0,0012.48,0005.73,0005.03
2022-09-26 03:42:00,,0833.9,5.01,0.00,30.7,29.3,00.0,39.4,32.5,13.9,0000.0,0012.39,0005.74,0005.05
2022-09-26 03:43:00,,0833.9,5.00,0.00,30.7,29.3,00.0,39.4,32.5,13.9,0000.0,0012.00,0005.72,0005.05
2022-09-26 03:44:00,,0833.9,4.99,0.00,30.7,29.3,00.0,39.4,32.6,13.9,0000.0,0011.68,0005.75,0005.04
2022-09-26 03:45:00,,0833.9,5.01,0.00,30.7,29.3,00.0,39.4,32.6,13.9,0000.1,0010.91,0005.72,0005.03
2022-09-26 03:46:00,,0833.9,4.99,0.00,30.7,29.4,00.0,39.5,32.6,13.9,0000.0,0010.52,0005.71,0005.02
2022-09-26 03:47:00,,0833.9,5.01,0.00,30.7,29.3,00.0,39.5,32.6,13.9,0000.0,0010.44,0005.71,0005.02
2022-09-26 03:48:00,,0833.9,4.99,0.00,30.7,29.3,00.0,39.5,32.6,13.9,0000.0,0010.48,0005.72,0005.03
2022-09-26 03:49:00,,0833.9,5.01,0.00,30.8,29.3,00.0,39.5,32.6,13.9,0000.0,0010.11,0005.72,0005.03
2022-09-26 03:50:00,,0833.8,4.99,0.00,30.8,29.3,00.0,39.5,32.6,13.9,0000.0,0009.60,0005.67,0005.04
2022-09-26 03:51:00,,0833.9,5.01,0.00,30.8,29.3,00.0,39.5,32.6,13.9,0000.0,0009.31,0005.64,0005.03
2022-09-26 03:52:00,,0833.9,4.99,0.00,30.8,29.3,00.0,39.5,32.6,14.0,0000.0,0009.03,0005.63,0005.04
2022-09-26 03:53:00,,0833.9,5.01,0.00,30.8,29.3,00.0,39.5,32.6,14.0,0000.0,0009.00,0005.63,0005.03
2022-09-26 03:54:00,,0833.9,4.99,0.00,30.8,29.3,00.0,39.5,32.6,14.0,0000.0,0009.39,0005.63,0005.04
2022-09-26 03:55:00,,0833.9,5.00,0.00,30.8,29.3,00.0,39.5,32.6,14.0,0000.0,0009.72,0005.60,0005.05
2022-09-26 03:56:00,,0833.9,5.01,0.00,30.8,29.3,00.0,39.5,32.6,14.0,0000.0,0009.74,0005.61,0005.06
2022-09-26 03:57:00,,0833.9,4.99,0.00,30.8,29.3,00.0,39.5,32.6,14.1,0000.0,0009.84,0005.63,0005.08
2022-09-26 03:58:00,,0834.0,5.01,0.00,30.8,28.9,00.0,39.5,32.6,14.1,0000.0,0010.20,0005.67,0005.08
2022-09-26 03:59:00,,0834.0,5.00,0.00,30.8,27.3,00.0,39.5,32.5,14.1,0000.0,0010.66,0005.68,0005.08
